Temperature
16 17 18 18 19 19 19 19 18 17 17 17 17 18 18 19 19 19 19 19 19 19 18 18 17 17 17 16 16 16 16 16 16 16 16 17 17 17 17 17 17 17 17
14 15 16 17 18 18 18 18 17 17 17 17 17 18 18 19 19 19 19 19 19 19 18 18 18 17 17 17 16 16 16 16 16 15 15 16 17 17 17 17 17 17 17
14 15 16 17 17 17 17 16 16 17 17 17 17 18 19 19 19 19 19 19 19 19 18 18 18 18 17 17 17 16 16 16 15 15 15 14 14 15 17 17 17 17 17
14 15 15 16 15 15 15 16 16 16 17 17 18 18 18 19 19 18 18 18 18 18 18 18 18 18 18 17 17 16 16 16 15 15 15 14 14 14 14 16 17 16 17
14 15 15 15 15 15 15 15 15 16 16 16 17 17 18 18 18 18 18 18 18 18 18 18 18 18 18 17 17 17 16 16 15 15 15 14 14 14 14 14 16 17 17
15 15 15 15 15 15 15 15 15 15 15 15 16 16 16 16 17 17 17 17 17 17 17 17 17 17 17 17 17 17 16 16 16 15 15 14 14 14 13 13 14 15 17
15 15 15 15 15 15 15 15 15 15 15 15 15 15 15 15 15 15 15 16 16 16 16 16 16 17 17 17 17 17 16 16 16 15 15 14 14 14 14 13 14 14 15
15 15 15 15 15 15 15 15 14 14 14 14 14 14 14 14 14 14 14 14 14 14 15 15 16 16 16 16 16 16 16 16 16 15 15 15 14 14 14 13 13 13 14
15 15 15 15 15 15 14 14 14 14 13 13 13 13 13 13 13 12 12 13 13 13 13 14 14 15 15 15 15 16 16 15 15 15 15 15 14 14 14 14 13 13 13
16 15 15 15 15 14 14 14 13 13 13 13 13 12 12 12 12 12 11 11 11 12 12 12 13 13 14 14 14 15 15 15 15 15 15 14 14 14 14 14 14 13 13
16 15 15 15 14 14 13 13 13 13 13 12 12 12 12 12 11 11 11 11 11 11 11 11 11 12 12 13 13 14 14 14 14 14 14 14 14 14 14 14 14 13 13
15 15 14 14 13 13 13 13 12 12 12 12 12 12 11 11 11 11 10 10 10 10 10 10 10 11 11 12 12 12 13 13 14 14 14 14 14 14 14 14 14 14 13
14 14 13 13 13 13 12 12 12 12 11 11 11 11 11 11 11 10 10 10 10 10 10 10 10 10 10 11 11 11 12 13 13 13 13 13 13 14 14 14 14 14 14
13 13 13 13 13 12 12 12 12 11 11 11 11 11 10 10 10 10 10 10 10 10 10 9 9 9 10 10 10 10 11 12 12 13 13 13 13 13 13 14 14 14 13
13 13 13 12 12 12 12 12 11 11 11 11 11 10 10 10 10 10 9 9 9 9 9 9 9 9 9 9 9 10 10 11 11 12 12 13 13 13 13 13 14 14 13
13 13 13 12 12 12 12 12 11 11 11 11 10 10 10 10 10 9 9 9 9 9 9 9 9 9 9 9 9 9 9 10 10 11 12 12 13 13 13 13 14 13 13
13 12 12 12 12 12 11 11 11 11 11 10 10 10 10 10 9 9 9 9 8 8 9 9 9 9 9 9 9 9 9 9 10 10 11 12 12 13 13 13 13 13 13
12 12 11 11 11 11 10 10 10 10 10 10 10 10 9 9 9 9 8 8 8 8 8 8 8 9 9 9 9 9 9 9 9 10 10 11 12 12 12 13 13 13 13
11 11 10 10 9 9 9 8 8 8 8 8 8 8 8 8 8 8 8 8 8 7 7 8 8 8 8 9 9 9 9 9 9 9 10 10 11 11 12 12 12 12 12
10 9 9 8 8 7 7 6 6 6 6 6 6 6 7 7 7 7 7 7 7 7 7 7 7 8 8 8 8 8 9 9 9 9 9 10 10 11 11 12 12 12 11
9 8 7 6 6 6 5 5 5 5 5 5 5 5 5 5 5 6 6 6 6 6 6 6 7 7 8 8 8 8 8 8 9 9 9 9 10 10 11 11 12 12 11
7 7 6 5 5 5 4 4 4 4 4 4 4 4 4 4 4 5 5 5 5 5 6 6 6 7 7 8 8 8 8 8 8 8 9 9 9 10 10 11 11 11 11
6 6 5 5 5 4 4 4 4 4 4 4 4 4 4 4 4 4 4 4 5 5 5 6 6 7 7 7 8 8 8 8 8 8 8 8 9 9 10 10 11 11 11
6 5 5 4 4 4 4 4 4 4 4 4 4 4 4 4 4 4 4 4 4 5 5 5 6 6 7 7 8 8 8 8 8 8 8 8 8 9 9 10 10 11 11
5 5 4 4 4 5 5 5 5 4 4 4 4 4 4 4 4 4 4 4 4 5 5 5 6 6 7 7 7 8 8 8 8 8 8 8 8 8 9 9 10 10 10
5 5 5 5 5 5 5 5 5 5 4 4 4 4 4 4 4 4 4 4 4 5 5 5 5 6 6 7 7 7 8 8 8 7 7 7 8 8 9 9 10 10 10
Wind_Speed
6 6 6 6 6 6 9 12 10 7 6 4 2 2 2 2 3 5 6 7 7 8 7 5 4 4 3 2 2 2 1 1 1 1 3 4 5 5 5 5 5 7 8
7 8 7 8 9 10 11 10 7 6 5 3 3 3 3 3 3 4 6 6 7 7 7 7 5 5 3 1 1 2 1 1 1 2 1 4 5 4 2 2 2 4 4
11 10 12 13 13 14 11 10 9 7 6 5 3 3 2 1 2 1 3 5 7 7 7 8 6 5 4 3 2 2 3 2 2 2 3 1 2 4 4 2 2 2 4
10 11 13 14 13 11 10 10 8 8 8 8 6 4 3 2 2 2 3 4 5 7 8 9 8 7 5 4 3 3 3 3 2 1 2 3 4 2 4 4 2 3 4
8 10 10 9 9 8 8 8 8 8 9 10 10 8 7 5 4 4 5 3 3 4 6 8 8 8 6 6 5 4 4 3 4 3 3 2 3 4 4 5 5 4 3
5 6 6 6 6 6 6 6 7 8 8 8 9 9 9 8 7 7 6 5 4 3 3 5 7 8 7 7 6 6 5 5 4 4 4 4 3 4 4 5 5 5 5
3 4 4 4 3 3 3 3 5 5 6 6 7 6 7 7 7 7 6 6 5 4 5 4 6 7 7 8 7 6 6 6 5 6 5 5 5 4 4 4 4 4 4
1 1 1 1 1 1 1 0 1 2 3 4 5 4 5 4 4 5 5 5 5 5 6 6 4 6 8 8 7 6 6 6 6 7 6 5 5 5 5 4 3 3 3
1 1 3 3 4 4 4 3 2 2 3 3 3 3 3 4 5 6 5 5 5 6 8 8 6 5 6 7 7 6 7 6 7 7 7 5 5 5 5 5 5 4 3
3 5 6 6 6 6 6 5 4 5 5 5 5 4 5 5 5 5 6 6 6 5 7 8 8 7 7 6 7 6 7 7 7 6 7 6 5 5 5 5 5 5 5
6 8 8 7 6 5 4 5 6 7 7 8 8 8 8 7 7 6 7 7 6 6 6 6 7 8 8 7 6 7 7 8 8 7 7 8 6 5 4 4 4 5 5
8 8 7 6 5 5 6 7 8 9 10 10 10 10 10 9 8 9 9 8 8 7 7 6 7 7 8 8 7 8 8 8 8 8 8 8 6 6 5 4 5 5 5
8 6 5 5 6 7 8 9 9 10 11 11 10 11 10 10 10 10 10 9 9 9 8 7 7 8 8 8 8 8 8 8 8 8 9 9 8 7 5 5 5 5 5
6 6 6 8 8 9 9 10 11 11 11 11 11 11 12 12 12 11 10 10 10 10 10 9 9 8 8 8 8 8 8 7 7 8 9 9 9 9 7 6 6 5 5
8 10 10 10 10 11 11 11 11 11 11 10 11 12 12 11 11 11 11 11 11 12 11 10 10 9 8 8 8 7 7 7 7 7 8 9 11 11 9 7 6 6 6
12 12 12 12 12 12 13 12 12 12 11 11 11 12 11 11 11 11 11 10 11 11 10 11 11 11 10 11 12 9 7 7 8 8 8 8 10 11 11 10 10 10 9
15 15 14 14 14 14 14 13 14 12 11 12 12 12 11 11 11 11 9 10 10 10 10 11 11 12 12 15 15 14 8 8 8 8 7 8 8 10 6 6 5 7 11
15 15 14 14 13 13 13 13 12 12 12 12 12 12 12 11 11 10 9 9 8 8 9 11 11 11 13 16 15 14 9 7 8 7 8 8 8 9 8 6 4 3 4
15 14 13 15 13 13 13 14 13 13 12 12 11 11 11 11 10 10 9 8 7 8 8 8 10 10 12 15 15 13 6 6 7 7 7 7 9 12 13 9 7 7 6
11 11 12 12 13 13 13 14 15 14 14 13 12 11 10 10 10 9 9 8 8 9 9 10 10 10 11 13 15 13 6 6 6 5 5 7 10 14 15 10 10 10 9
11 11 12 13 14 15 15 15 16 16 16 15 14 14 12 11 10 9 8 8 8 8 9 10 9 10 11 12 15 14 7 6 5 4 4 4 9 14 15 12 9 12 12
12 13 14 15 15 15 15 17 17 17 16 16 16 15 13 12 12 8 8 8 8 8 9 8 8 7 8 10 12 15 13 9 5 4 3 3 8 12 14 11 13 16 14
14 14 16 18 17 15 15 18 18 17 17 16 15 15 14 12 10 10 10 9 8 8 8 7 7 7 6 7 12 13 13 12 6 3 2 2 7 9 10 13 18 15 10
15 16 18 19 19 18 17 17 17 16 15 15 14 12 11 11 10 9 8 8 7 7 7 7 7 6 5 5 5 5 6 8 6 4 2 3 7 6 7 12 13 9 10
15 16 18 19 20 20 19 17 16 14 14 13 12 10 9 9 8 8 7 8 8 8 8 7 6 6 5 7 10 8 7 7 7 6 3 3 4 5 6 8 7 7 9
17 18 19 19 19 19 18 17 15 13 12 11 10 8 7 7 6 6 6 9 10 11 13 10 7 6 7 8 10 12 11 12 13 8 4 5 6 6 8 10 7 6 8
Wind_Direction
48 45 52 64 76 71 75 73 61 23 345 351 353 340 266 244 203 184 179 171 165 160 151 145 143 131 129 156 187 173 180 247 206 25 323 302 276 257 249 247 250 249 244
38 37 44 56 59 59 57 67 61 34 339 299 263 247 241 241 210 190 184 181 171 165 158 155 155 150 144 149 210 165 168 241 171 141 21 337 335 337 296 275 261 274 277
38 42 49 49 50 49 43 47 44 30 353 337 316 313 332 7 24 241 211 205 188 175 165 167 163 165 159 184 218 206 181 206 244 180 160 162 274 309 308 288 277 313 307
34 43 48 48 50 48 46 44 39 25 8 11 16 13 13 352 324 291 266 243 210 189 177 174 173 173 172 191 221 203 189 179 219 251 204 191 185 224 301 307 294 306 308
36 45 48 50 49 45 43 38 35 34 24 24 25 23 24 5 347 349 342 313 259 220 199 187 181 179 183 195 207 206 205 195 200 211 220 227 218 209 223 283 307 315 285
52 56 56 56 49 43 36 27 25 21 19 25 27 24 19 10 10 7 358 344 327 303 268 218 196 189 187 194 202 207 212 216 218 220 213 207 212 208 210 247 286 301 297
84 78 69 61 54 46 34 32 29 13 8 18 22 17 12 5 4 355 349 345 338 326 314 273 219 204 197 196 196 204 217 221 224 227 226 223 222 215 213 233 261 277 295
109 101 138 156 196 211 218 252 20 347 349 2 359 359 2 354 342 337 333 334 326 314 324 320 273 229 210 203 198 205 218 223 227 232 229 229 236 225 216 217 231 275 291
184 249 246 232 226 223 222 219 233 277 291 290 292 301 317 320 316 317 317 316 316 321 334 331 323 292 247 222 206 211 219 223 229 234 236 235 239 232 227 219 206 214 248
262 269 262 249 236 215 205 205 214 238 253 256 255 254 260 265 274 289 298 301 305 315 321 325 324 315 291 258 230 222 224 223 231 231 235 238 239 238 233 227 217 208 210
269 270 272 273 266 249 237 238 242 247 252 253 253 254 256 256 260 266 269 273 281 292 300 306 310 310 305 292 265 245 232 227 232 233 231 236 234 235 235 231 224 216 206
289 293 305 311 306 288 275 264 258 255 255 254 253 254 256 255 254 257 262 264 269 272 274 281 289 295 299 300 290 275 259 239 231 230 228 234 233 229 230 228 230 225 210
313 322 324 313 292 274 266 261 259 257 258 256 254 256 258 257 254 253 255 256 258 263 267 266 269 275 281 288 290 285 276 256 240 228 222 226 220 227 227 230 235 233 221
318 308 292 280 271 264 258 255 255 253 255 254 251 250 252 252 253 253 251 251 250 252 257 256 256 260 266 274 280 282 282 273 258 238 226 219 212 218 221 230 234 229 218
305 296 284 275 269 265 261 256 254 253 251 246 244 244 245 245 247 250 251 251 250 251 249 250 253 253 257 262 263 265 276 279 272 257 237 223 215 212 212 221 226 214 207
304 300 293 285 279 273 269 264 259 256 248 239 237 236 235 237 239 243 247 250 251 251 248 246 248 251 255 256 258 261 265 269 267 260 246 228 212 210 214 225 226 213 200
307 303 297 289 286 284 278 274 268 260 249 242 240 233 228 227 229 235 237 241 247 250 250 249 246 246 247 248 254 260 256 258 262 256 242 229 207 191 197 211 215 212 203
305 302 300 298 296 294 294 290 285 275 265 258 251 240 229 226 224 223 226 232 236 241 246 248 245 242 245 242 244 249 249 252 258 257 240 224 198 190 183 177 159 139 153
305 309 310 312 314 315 315 313 308 300 292 285 273 259 245 234 224 220 223 227 233 241 243 243 240 237 242 239 237 236 232 243 256 261 246 222 201 191 177 162 147 128 113
313 318 321 321 322 321 322 320 315 310 303 300 293 280 264 249 235 226 226 228 230 238 244 245 237 233 235 235 231 225 214 233 250 259 246 225 207 188 175 164 155 145 136
318 321 321 320 316 314 313 310 307 303 301 300 297 292 279 264 250 239 237 237 238 239 240 242 239 232 228 227 223 217 203 213 230 242 240 222 203 190 179 166 159 151 141
320 322 323 320 316 313 311 308 303 300 298 296 292 288 281 273 271 252 244 242 240 240 239 237 238 233 226 221 221 217 211 202 203 222 229 213 190 189 180 164 150 143 135
322 325 323 321 319 315 311 307 304 303 300 295 291 287 282 274 265 257 252 250 241 237 235 227 228 228 222 224 224 218 215 209 197 198 193 189 182 183 179 163 152 147 140
326 328 326 325 324 322 317 309 307 307 303 299 295 290 284 277 269 260 251 247 241 232 226 221 220 217 214 216 208 197 198 195 187 174 144 149 171 179 170 161 158 152 149
328 328 328 326 323 322 319 317 316 313 309 305 301 296 286 278 272 263 252 245 238 226 214 211 201 193 206 216 195 178 182 184 182 160 147 145 156 167 164 161 155 143 140
329 329 327 325 323 322 321 320 319 316 312 311 309 303 296 288 278 274 274 251 239 233 223 212 194 198 203 200 189 186 183 179 168 156 162 161 161 172 169 161 150 142 145
Height
1496 1494 1493 1491 1488 1483 1477 1476 1477 1475 1480 1484 1489 1492 1496 1496 1496 1497 1498 1498 1497 1497 1496 1496 1495 1495 1494 1493 1493 1492 1492 1491 1490 1489 1488 1488 1488 1488 1489 1490 1492 1493 1494
1499 1495 1492 1488 1485 1483 1480 1479 1481 1483 1486 1489 1490 1493 1495 1495 1495 1495 1496 1496 1495 1495 1495 1494 1493 1492 1491 1491 1491 1489 1489 1488 1487 1486 1484 1483 1484 1484 1485 1486 1487 1488 1488
1501 1495 1491 1487 1485 1485 1485 1485 1486 1487 1488 1489 1490 1492 1493 1494 1493 1493 1493 1493 1493 1493 1492 1492 1491 1490 1489 1489 1488 1487 1486 1485 1484 1483 1482 1481 1481 1480 1480 1481 1483 1484 1484
1503 1496 1493 1491 1490 1490 1490 1489 1490 1491 1490 1489 1490 1490 1491 1491 1491 1490 1489 1489 1489 1489 1489 1489 1488 1487 1487 1487 1486 1485 1484 1483 1482 1480 1479 1479 1479 1478 1476 1476 1478 1479 1479
1505 1500 1498 1497 1496 1495 1494 1493 1493 1492 1491 1489 1489 1488 1488 1488 1487 1486 1486 1485 1485 1485 1485 1485 1485 1484 1484 1484 1483 1483 1481 1480 1479 1477 1476 1476 1475 1475 1475 1472 1471 1473 1474
1508 1504 1502 1501 1500 1499 1497 1496 1494 1493 1491 1489 1488 1487 1485 1484 1483 1482 1481 1481 1481 1481 1480 1480 1480 1480 1481 1481 1480 1479 1478 1477 1476 1474 1473 1472 1471 1471 1471 1469 1468 1467 1468
1508 1506 1504 1503 1502 1500 1499 1497 1495 1493 1491 1489 1487 1485 1483 1481 1479 1477 1476 1475 1475 1475 1474 1474 1474 1475 1476 1476 1476 1476 1475 1473 1472 1471 1470 1468 1468 1467 1467 1466 1465 1464 1464
1508 1506 1505 1504 1502 1501 1499 1497 1495 1493 1490 1488 1486 1484 1481 1479 1477 1475 1473 1471 1469 1468 1468 1467 1467 1468 1470 1470 1471 1471 1470 1469 1468 1467 1466 1465 1464 1463 1462 1462 1462 1461 1461
1507 1506 1504 1503 1501 1498 1496 1494 1493 1491 1488 1485 1483 1481 1478 1476 1473 1471 1469 1467 1465 1463 1461 1461 1461 1461 1463 1464 1464 1465 1465 1465 1464 1463 1462 1460 1460 1459 1458 1458 1458 1459 1458
1506 1504 1502 1499 1497 1494 1492 1490 1488 1487 1484 1482 1479 1477 1475 1472 1470 1467 1465 1462 1460 1458 1456 1455 1454 1454 1456 1457 1457 1458 1459 1459 1458 1458 1457 1456 1455 1455 1454 1453 1453 1454 1454
1505 1502 1498 1495 1492 1490 1488 1486 1484 1482 1480 1477 1475 1472 1469 1467 1465 1462 1460 1457 1455 1453 1451 1450 1449 1448 1448 1448 1449 1450 1451 1452 1452 1453 1452 1451 1451 1450 1449 1449 1449 1449 1449
1503 1500 1496 1492 1489 1487 1484 1482 1479 1477 1474 1471 1468 1465 1463 1461 1458 1456 1454 1452 1450 1448 1446 1445 1443 1443 1442 1441 1441 1442 1443 1444 1445 1446 1446 1446 1446 1445 1444 1444 1444 1444 1444
1501 1497 1494 1490 1487 1484 1480 1477 1473 1470 1466 1463 1460 1457 1455 1453 1451 1449 1448 1446 1444 1443 1441 1440 1438 1437 1436 1436 1435 1435 1435 1436 1438 1439 1440 1440 1441 1439 1439 1439 1438 1438 1439
1498 1494 1490 1486 1482 1478 1474 1469 1465 1462 1458 1455 1452 1449 1447 1445 1443 1442 1440 1439 1437 1436 1435 1434 1432 1431 1430 1429 1429 1429 1429 1429 1430 1432 1433 1434 1434 1434 1434 1433 1433 1433 1433
1493 1489 1484 1479 1474 1469 1465 1460 1456 1453 1449 1446 1443 1441 1439 1437 1435 1433 1432 1430 1429 1428 1428 1427 1426 1425 1424 1423 1423 1423 1423 1423 1423 1424 1425 1427 1428 1428 1428 1428 1427 1427 1427
1486 1481 1476 1471 1465 1460 1455 1450 1446 1443 1440 1436 1433 1431 1429 1428 1426 1425 1423 1422 1421 1420 1420 1419 1419 1419 1418 1418 1418 1417 1417 1417 1417 1417 1418 1420 1421 1422 1422 1422 1422 1422 1422
1480 1474 1468 1462 1456 1451 1446 1440 1436 1432 1429 1425 1423 1421 1419 1417 1416 1415 1414 1413 1413 1412 1411 1411 1411 1411 1411 1412 1412 1412 1411 1411 1411 1411 1411 1412 1414 1415 1416 1417 1417 1417 1417
1474 1468 1461 1455 1449 1443 1437 1431 1426 1421 1418 1414 1412 1410 1408 1406 1406 1405 1405 1404 1404 1404 1403 1403 1403 1403 1404 1405 1406 1406 1405 1405 1405 1404 1405 1406 1407 1409 1411 1412 1412 1412 1413
1470 1463 1456 1449 1441 1435 1428 1422 1416 1411 1407 1403 1400 1398 1396 1395 1394 1393 1394 1394 1394 1394 1394 1394 1395 1395 1396 1398 1399 1400 1400 1399 1398 1398 1398 1399 1402 1404 1406 1408 1409 1409 1411
1464 1457 1449 1442 1434 1427 1420 1413 1407 1401 1396 1392 1388 1386 1384 1382 1381 1381 1382 1383 1383 1383 1384 1385 1386 1387 1388 1390 1392 1393 1393 1393 1393 1393 1393 1394 1396 1399 1402 1404 1406 1407 1409
1458 1451 1443 1435 1427 1419 1412 1404 1398 1391 1386 1381 1377 1373 1371 1370 1369 1369 1370 1371 1372 1372 1374 1375 1376 1378 1380 1382 1384 1386 1387 1388 1388 1388 1388 1388 1391 1394 1398 1402 1404 1406 1409
1451 1444 1435 1427 1419 1412 1404 1396 1389 1383 1377 1371 1366 1362 1360 1359 1358 1358 1358 1360 1361 1362 1364 1366 1368 1370 1372 1375 1377 1379 1381 1382 1383 1383 1383 1384 1386 1390 1395 1400 1403 1407 1410
1446 1437 1429 1420 1413 1405 1398 1389 1381 1374 1367 1362 1357 1353 1350 1348 1347 1347 1348 1349 1350 1352 1354 1357 1359 1362 1365 1368 1370 1372 1374 1376 1377 1378 1379 1379 1381 1386 1392 1397 1402 1406 1410
1440 1432 1423 1415 1406 1399 1391 1384 1375 1368 1361 1355 1350 1346 1342 1340 1339 1338 1339 1340 1341 1343 1346 1349 1352 1355 1359 1361 1364 1366 1368 1370 1372 1374 1375 1376 1378 1382 1388 1395 1401 1406 1410
1436 1428 1419 1411 1402 1394 1386 1379 1371 1363 1356 1351 1345 1341 1337 1334 1333 1332 1332 1333 1334 1337 1340 1343 1347 1350 1353 1356 1359 1361 1364 1365 1368 1369 1371 1372 1375 1379 1385 1393 1399 1405 1411
1432 1424 1416 1407 1399 1391 1383 1375 1368 1361 1354 1348 1342 1338 1334 1331 1329 1328 1328 1329 1330 1332 1336 1339 1343 1346 1350 1353 1355 1358 1360 1362 1363 1366 1367 1369 1373 1377 1383 1390 1397 1404 1410